| time (UTC) | temp F | wind direction | speed MPH | gust MPH | rain 1hr in | rain 24hr in | rain mn in | humidity % | barometer mb |
| 20260505022505 | 37 | 215 | 0.0 | 2.0 | 0.01 | 0.01 | 0.01 | 81 | 1002.7 |
| 20260505022001 | 37 | 217 | 0.0 | 0.0 | 0.01 | 0.01 | 0.01 | 80 | 1002.8 |
| 20260505021601 | 37 | 217 | 0.0 | 1.0 | 0.01 | 0.01 | 0.01 | 79 | 1002.7 |
| 20260505021158 | 37 | 217 | 0.0 | 1.0 | 0.01 | 0.01 | 0.01 | 78 | 1002.6 |
| 20260505020554 | 37 | 217 | 0.0 | 0.0 | 0.01 | 0.01 | 0.01 | 78 | 1002.5 |
| 20260505020153 | 38 | 217 | 0.0 | 1.0 | 0.01 | 0.01 | 0.01 | 77 | 1002.6 |
| 20260505015551 | 38 | 217 | 0.0 | 5.0 | 0.01 | 0.01 | 0.01 | 77 | 1002.5 |
| 20260505015052 | 38 | 166 | 2.0 | 6.0 | 0.01 | 0.01 | 0.01 | 76 | 1002.3 |
| 20260505014551 | 37 | 168 | 1.0 | 4.0 | 0.01 | 0.01 | 0.01 | 76 | 1002.5 |
| 20260505013541 | 37 | 279 | 5.0 | 14.0 | 0.01 | 0.01 | 0.01 | 81 | 1002.6 |
| 20260505013039 | 38 | 274 | 6.0 | 15.0 | 0.01 | 0.01 | 0.01 | 79 | 1002.9 |
| 20260505012534 | 39 | 291 | 8.0 | 15.0 | 0.00 | 0.00 | 0.00 | 75 | 1002.7 |
| 20260505012032 | 39 | 180 | 1.0 | 8.0 | 0.00 | 0.00 | 0.00 | 73 | 1002.4 |
| 20260505011532 | 40 | 246 | 2.0 | 12.0 | 0.00 | 0.00 | 0.00 | 71 | 1002.5 |
| 20260505011027 | 41 | 184 | 2.0 | 7.0 | 0.00 | 0.00 | 0.00 | 71 | 1002.7 |
| 20260505010524 | 42 | 163 | 0.0 | 5.0 | 0.00 | 0.00 | 0.00 | 70 | 1002.5 |
| 20260505010023 | 42 | 134 | 3.0 | 5.0 | 0.00 | 0.00 | 0.00 | 71 | 1002.1 |
| 20260505005520 | 42 | 132 | 2.0 | 8.0 | 0.00 | 0.00 | 0.00 | 68 | 1002.1 |
| 20260505005118 | 43 | 111 | 1.0 | 8.0 | 0.00 | 0.00 | 0.00 | 67 | 1002.0 |
| 20260505004515 | 44 | 86 | 1.0 | 5.0 | 0.00 | 0.00 | 0.00 | 63 | 1001.9 |
| 20260505004012 | 45 | 44 | 0.0 | 5.0 | 0.00 | 0.00 | 0.00 | 54 | 1001.9 |
| 20260505003511 | 45 | 43 | 1.0 | 5.0 | 0.00 | 0.00 | 0.00 | 54 | 1001.8 |
| 20260505003017 | 45 | 39 | 0.0 | 4.0 | 0.00 | 0.00 | 0.00 | 54 | 1002.0 |
| 20260505002605 | 45 | 40 | 1.0 | 3.0 | 0.00 | 0.00 | 0.00 | 55 | 1002.0 |
| 20260505002002 | 45 | 62 | 0.0 | 2.0 | 0.00 | 0.00 | 0.00 | 55 | 1002.1 |
| 20260505001605 | 45 | 67 | 0.0 | 4.0 | 0.00 | 0.00 | 0.00 | 55 | 1002.1 |
| 20260505001057 | 45 | 42 | 0.0 | 4.0 | 0.00 | 0.00 | 0.00 | 55 | 1002.1 |
| 20260505000558 | 45 | 26 | 0.0 | 4.0 | 0.00 | 0.00 | 0.00 | 55 | 1002.2 |
| 20260505000055 | 45 | 360 | 1.0 | 5.0 | 0.00 | 0.00 | 0.00 | 55 | 1002.0 |
| 20260504235550 | 45 | 40 | 0.0 | 6.0 | 0.00 | 0.00 | 0.00 | 56 | 1002.3 |
| 20260504235048 | 46 | 16 | 1.0 | 6.0 | 0.00 | 0.00 | 0.00 | 55 | 1002.4 |
| 20260504234545 | 46 | 330 | 1.0 | 6.0 | 0.00 | 0.00 | 0.00 | 56 | 1002.4 |
| 20260504234042 | 46 | 331 | 2.0 | 10.0 | 0.00 | 0.00 | 0.00 | 56 | 1002.4 |
| 20260504233541 | 46 | 305 | 4.0 | 11.0 | 0.00 | 0.00 | 0.00 | 57 | 1002.3 |
| 20260504233139 | 46 | 333 | 4.0 | 14.0 | 0.00 | 0.00 | 0.00 | 58 | 1002.4 |
| 20260504232636 | 46 | 291 | 5.0 | 14.0 | 0.00 | 0.00 | 0.00 | 58 | 1002.3 |
| 20260504232034 | 45 | 317 | 6.0 | 14.0 | 0.00 | 0.00 | 0.00 | 57 | 1002.3 |
| 20260504231541 | 44 | 311 | 6.0 | 16.0 | 0.00 | 0.00 | 0.00 | 57 | 1002.3 |
| 20260504231033 | 44 | 288 | 10.0 | 16.0 | 0.00 | 0.00 | 0.00 | 57 | 1002.1 |
| 20260504230531 | 46 | 298 | 9.0 | 25.0 | 0.00 | 0.00 | 0.00 | 53 | 1002.0 |
| 20260504230029 | 47 | 246 | 10.0 | 25.0 | 0.00 | 0.00 | 0.00 | 48 | 1002.1 |
| 20260504225526 | 49 | 324 | 5.0 | 9.0 | 0.00 | 0.00 | 0.00 | 39 | 1001.6 |
| 20260504225027 | 50 | 313 | 3.0 | 8.0 | 0.00 | 0.00 | 0.00 | 37 | 1001.5 |
| 20260504224621 | 50 | 282 | 2.0 | 12.0 | 0.00 | 0.00 | 0.00 | 36 | 1001.4 |
| 20260504224020 | 51 | 314 | 4.0 | 12.0 | 0.00 | 0.00 | 0.00 | 36 | 1001.4 |
| 20260504223517 | 51 | 272 | 3.0 | 12.0 | 0.00 | 0.00 | 0.00 | 36 | 1001.4 |
| 20260504223014 | 52 | 254 | 5.0 | 12.0 | 0.00 | 0.00 | 0.00 | 32 | 1001.3 |
| 20260504222512 | 53 | 306 | 4.0 | 11.0 | 0.00 | 0.00 | 0.00 | 35 | 1001.5 |
| 20260504222009 | 53 | 279 | 3.0 | 13.0 | 0.00 | 0.00 | 0.00 | 33 | 1001.5 |
| 20260504221507 | 52 | 284 | 5.0 | 10.0 | 0.00 | 0.00 | 0.00 | 34 | 1001.4 |
| 20260504221003 | 53 | 316 | 4.0 | 9.0 | 0.00 | 0.00 | 0.00 | 32 | 1001.6 |
| 20260504220601 | 52 | 275 | 4.0 | 11.0 | 0.00 | 0.00 | 0.00 | 33 | 1001.8 |
| 20260504220200 | 52 | 277 | 5.0 | 12.0 | 0.00 | 0.00 | 0.00 | 34 | 1001.8 |
| 20260504215556 | 53 | 296 | 3.0 | 12.0 | 0.00 | 0.00 | 0.00 | 30 | 1001.9 |
| 20260504215054 | 53 | 276 | 2.0 | 11.0 | 0.00 | 0.00 | 0.00 | 32 | 1002.0 |
| 20260504214556 | 53 | 286 | 4.0 | 11.0 | 0.00 | 0.00 | 0.00 | 32 | 1001.9 |
| 20260504214049 | 53 | 281 | 4.0 | 9.0 | 0.00 | 0.00 | 0.00 | 32 | 1001.9 |
| 20260504213546 | 53 | 275 | 2.0 | 10.0 | 0.00 | 0.00 | 0.00 | 34 | 1002.2 |
| 20260504213043 | 52 | 319 | 4.0 | 11.0 | 0.00 | 0.00 | 0.00 | 36 | 1002.2 |
| 20260504212541 | 53 | 294 | 3.0 | 11.0 | 0.00 | 0.00 | 0.00 | 32 | 1002.3 |
| 20260504212041 | 53 | 266 | 0.0 | 10.0 | 0.00 | 0.00 | 0.00 | 34 | 1002.2 |
| 20260504211033 | 52 | 321 | 1.0 | 10.0 | 0.00 | 0.00 | 0.00 | 33 | 1002.4 |
| 20260504210536 | 53 | 275 | 4.0 | 9.0 | 0.00 | 0.00 | 0.00 | 33 | 1002.5 |
| 20260504210035 | 52 | 293 | 1.0 | 9.0 | 0.00 | 0.00 | 0.00 | 34 | 1002.7 |
| 20260504205529 | 51 | 311 | 1.0 | 8.0 | 0.00 | 0.00 | 0.00 | 34 | 1002.7 |
| 20260504205025 | 51 | 202 | 1.0 | 11.0 | 0.00 | 0.00 | 0.00 | 33 | 1002.9 |
| 20260504204523 | 51 | 290 | 4.0 | 11.0 | 0.00 | 0.00 | 0.00 | 34 | 1003.0 |
| 20260504204027 | 50 | 319 | 2.0 | 13.0 | 0.00 | 0.00 | 0.00 | 36 | 1003.0 |
| 20260504203519 | 51 | 319 | 5.0 | 16.0 | 0.00 | 0.00 | 0.00 | 35 | 1002.9 |
| 20260504203117 | 51 | 306 | 8.0 | 16.0 | 0.00 | 0.00 | 0.00 | 33 | 1002.9 |
| 20260504202514 | 51 | 290 | 4.0 | 18.0 | 0.00 | 0.00 | 0.00 | 37 | 1003.0 |
| 20260504202011 | 51 | 317 | 8.0 | 17.0 | 0.00 | 0.00 | 0.00 | 37 | 1002.9 |
| 20260504201609 | 50 | 289 | 7.0 | 16.0 | 0.00 | 0.00 | 0.00 | 37 | 1003.0 |
| 20260504201009 | 51 | 284 | 5.0 | 11.0 | 0.00 | 0.00 | 0.00 | 39 | 1003.1 |
| 20260504200604 | 51 | 284 | 5.0 | 12.0 | 0.00 | 0.00 | 0.00 | 30 | 1003.1 |
| 20260504195558 | 52 | 304 | 2.0 | 9.0 | 0.00 | 0.00 | 0.00 | 28 | 1003.0 |
| 20260504195056 | 52 | 337 | 3.0 | 11.0 | 0.00 | 0.00 | 0.00 | 28 | 1002.9 |
| 20260504194602 | 53 | 296 | 5.0 | 11.0 | 0.00 | 0.00 | 0.00 | 29 | 1003.1 |
| 20260504194053 | 53 | 331 | 4.0 | 8.0 | 0.00 | 0.00 | 0.00 | 29 | 1003.0 |
| 20260504193550 | 54 | 5 | 3.0 | 13.0 | 0.00 | 0.00 | 0.00 | 29 | 1003.0 |
| 20260504192545 | 55 | 319 | 4.0 | 15.0 | 0.00 | 0.00 | 0.00 | 29 | 1003.2 |
| 20260504192043 | 54 | 344 | 7.0 | 15.0 | 0.00 | 0.00 | 0.00 | 29 | 1003.3 |
| 20260504191542 | 54 | 313 | 5.0 | 14.0 | 0.00 | 0.00 | 0.00 | 29 | 1003.3 |
| 20260504191036 | 53 | 342 | 5.0 | 12.0 | 0.00 | 0.00 | 0.00 | 32 | 1003.3 |
| 20260504190534 | 52 | 339 | 6.0 | 22.0 | 0.00 | 0.00 | 0.00 | 34 | 1003.5 |
| 20260504190035 | 51 | 294 | 7.0 | 22.0 | 0.00 | 0.00 | 0.00 | 35 | 1003.5 |
| 20260504185532 | 50 | 312 | 7.0 | 18.0 | 0.00 | 0.00 | 0.00 | 36 | 1003.7 |
| 20260504185026 | 50 | 323 | 7.0 | 18.0 | 0.00 | 0.00 | 0.00 | 35 | 1003.7 |
| 20260504184524 | 52 | 296 | 6.0 | 16.0 | 0.00 | 0.00 | 0.00 | 33 | 1003.8 |
| 20260504184020 | 51 | 330 | 7.0 | 16.0 | 0.00 | 0.00 | 0.00 | 33 | 1003.8 |
| 20260504183517 | 51 | 306 | 6.0 | 13.0 | 0.00 | 0.00 | 0.00 | 33 | 1004.0 |
| 20260504183014 | 52 | 324 | 5.0 | 13.0 | 0.00 | 0.00 | 0.00 | 35 | 1004.1 |
| 20260504182516 | 51 | 323 | 3.0 | 15.0 | 0.00 | 0.00 | 0.00 | 38 | 1004.2 |
| 20260504181604 | 50 | 355 | 7.0 | 21.0 | 0.00 | 0.00 | 0.00 | 39 | 1004.3 |
| 20260504181001 | 49 | 271 | 8.0 | 20.0 | 0.00 | 0.00 | 0.00 | 34 | 1004.3 |
| 20260504180600 | 48 | 293 | 12.0 | 24.0 | 0.00 | 0.00 | 0.00 | 34 | 1004.3 |
| 20260504180056 | 48 | 287 | 11.0 | 24.0 | 0.00 | 0.00 | 0.00 | 35 | 1004.2 |
| 20260504175556 | 48 | 299 | 9.0 | 20.0 | 0.00 | 0.00 | 0.00 | 35 | 1004.3 |
| 20260504175052 | 49 | 325 | 3.0 | 13.0 | 0.00 | 0.00 | 0.00 | 35 | 1004.2 |
| 20260504174550 | 49 | 313 | 5.0 | 16.0 | 0.00 | 0.00 | 0.00 | 37 | 1004.4 |
| 20260504174046 | 49 | 290 | 9.0 | 16.0 | 0.00 | 0.00 | 0.00 | 36 | 1004.4 |
| 20260504173645 | 49 | 326 | 8.0 | 15.0 | 0.00 | 0.00 | 0.00 | 33 | 1004.2 |
| 20260504173041 | 48 | 257 | 8.0 | 17.0 | 0.00 | 0.00 | 0.00 | 36 | 1004.3 |
| 20260504172538 | 48 | 292 | 7.0 | 20.0 | 0.00 | 0.00 | 0.00 | 36 | 1004.4 |
| 20260504172036 | 48 | 267 | 9.0 | 20.0 | 0.00 | 0.00 | 0.00 | 36 | 1004.5 |
| 20260504171534 | 49 | 289 | 9.0 | 14.0 | 0.00 | 0.00 | 0.00 | 36 | 1004.4 |
| 20260504171033 | 49 | 293 | 7.0 | 19.0 | 0.00 | 0.00 | 0.00 | 35 | 1004.5 |
| 20260504170530 | 50 | 300 | 8.0 | 19.0 | 0.00 | 0.00 | 0.00 | 36 | 1004.5 |
| 20260504160153 | 47 | 257 | 1.0 | 9.0 | 0.00 | 0.00 | 0.00 | 42 | 1005.1 |
| 20260504151023 | 41 | 275 | 5.0 | 14.0 | 0.00 | 0.00 | 0.00 | 53 | 1006.3 |
| 20260504150621 | 41 | 288 | 8.0 | 19.0 | 0.00 | 0.00 | 0.00 | 54 | 1006.5 |
| 20260504141049 | 39 | 226 | 0.0 | 3.0 | 0.00 | 0.00 | 0.00 | 54 | 1006.4 |
| 20260504130516 | 32 | 159 | 0.0 | 3.0 | 0.00 | 0.00 | 0.00 | 61 | 1005.9 |
| 20260504110554 | 32 | 171 | 0.0 | 3.0 | 0.00 | 0.00 | 0.00 | 60 | 1005.6 |
| 20260504100549 | 34 | 171 | 0.0 | 3.0 | 0.00 | 0.00 | 0.00 | 55 | 1005.6 |
| 20260504081534 | 35 | 224 | 0.0 | 0.0 | 0.00 | 0.00 | 0.00 | 51 | 1006.6 |
| 20260504081032 | 35 | 224 | 0.0 | 0.0 | 0.00 | 0.00 | 0.00 | 52 | 1006.7 |
| 20260504080531 | 34 | 224 | 0.0 | 0.0 | 0.00 | 0.00 | 0.00 | 53 | 1006.7 |
| 20260504050514 | 37 | 169 | 1.0 | 3.0 | 0.00 | 0.00 | 0.00 | 51 | 1008.1 |
| 20260504050009 | 37 | 288 | 2.0 | 3.0 | 0.00 | 0.00 | 0.00 | 50 | 1008.2 |
| 20260504045507 | 37 | 295 | 0.0 | 2.0 | 0.00 | 0.00 | 0.00 | 49 | 1008.1 |
| 20260504045007 | 37 | 295 | 0.0 | 1.0 | 0.00 | 0.00 | 0.00 | 48 | 1008.2 |
| 20260504044514 | 38 | 295 | 0.0 | 1.0 | 0.00 | 0.00 | 0.00 | 48 | 1008.1 |
| 20260504044007 | 38 | 296 | 0.0 | 1.0 | 0.00 | 0.00 | 0.00 | 48 | 1008.2 |
| 20260504043508 | 38 | 296 | 0.0 | 0.0 | 0.00 | 0.00 | 0.00 | 47 | 1008.3 |
| 20260504043009 | 38 | 296 | 0.0 | 0.0 | 0.00 | 0.00 | 0.00 | 47 | 1008.3 |
| 20260504042507 | 38 | 296 | 0.0 | 0.0 | 0.00 | 0.00 | 0.00 | 47 | 1008.3 |
| 20260504042007 | 39 | 296 | 0.0 | 0.0 | 0.00 | 0.00 | 0.00 | 47 | 1008.4 |
| 20260504041507 | 39 | 296 | 0.0 | 0.0 | 0.00 | 0.00 | 0.00 | 46 | 1008.4 |
| 20260504041007 | 39 | 296 | 0.0 | 0.0 | 0.00 | 0.00 | 0.00 | 47 | 1008.5 |
| 20260504040506 | 39 | 296 | 0.0 | 0.0 | 0.00 | 0.00 | 0.00 | 46 | 1008.4 |
| 20260504040006 | 39 | 296 | 0.0 | 0.0 | 0.00 | 0.00 | 0.00 | 46 | 1008.3 |
| 20260504035508 | 40 | 296 | 0.0 | 0.0 | 0.00 | 0.00 | 0.00 | 46 | 1008.3 |
| 20260504035008 | 40 | 296 | 0.0 | 0.0 | 0.00 | 0.00 | 0.00 | 45 | 1008.3 |
| 20260504034506 | 40 | 296 | 0.0 | 0.0 | 0.00 | 0.00 | 0.00 | 45 | 1008.3 |
| 20260504034008 | 40 | 296 | 0.0 | 1.0 | 0.00 | 0.00 | 0.00 | 45 | 1008.4 |
| 20260504033505 | 40 | 296 | 0.0 | 1.0 | 0.00 | 0.00 | 0.00 | 45 | 1008.4 |
| 20260504033005 | 40 | 296 | 0.0 | 1.0 | 0.00 | 0.00 | 0.00 | 45 | 1008.5 |
| 20260504032504 | 41 | 296 | 0.0 | 3.0 | 0.00 | 0.00 | 0.00 | 44 | 1008.5 |
| 20260504032004 | 41 | 296 | 0.0 | 3.0 | 0.00 | 0.00 | 0.00 | 44 | 1008.5 |
| 20260504031503 | 41 | 285 | 0.0 | 1.0 | 0.00 | 0.00 | 0.00 | 44 | 1008.4 |
| 20260504031005 | 41 | 285 | 0.0 | 1.0 | 0.00 | 0.00 | 0.00 | 43 | 1008.4 |
| 20260504030503 | 41 | 284 | 0.0 | 1.0 | 0.00 | 0.00 | 0.00 | 42 | 1008.3 |
| 20260504030003 | 41 | 284 | 0.0 | 3.0 | 0.00 | 0.00 | 0.00 | 42 | 1008.2 |
| 20260504025504 | 42 | 272 | 0.0 | 2.0 | 0.00 | 0.00 | 0.00 | 42 | 1008.1 |
| 20260504025005 | 42 | 272 | 0.0 | 2.0 | 0.00 | 0.00 | 0.00 | 41 | 1008.0 |
| 20260504024502 | 42 | 273 | 0.0 | 2.0 | 0.00 | 0.00 | 0.00 | 43 | 1008.0 |
| 20260504024002 | 42 | 275 | 0.0 | 2.0 | 0.00 | 0.00 | 0.00 | 42 | 1008.0 |
| 20260504023502 | 43 | 281 | 0.0 | 2.0 | 0.00 | 0.00 | 0.00 | 41 | 1008.0 |
| 20260504023002 | 43 | 278 | 0.0 | 2.0 | 0.00 | 0.00 | 0.00 | 41 | 1008.0 |